Flag for U.S.A. Weather past 2 weeks in Simi Valley, California, U.S.A.

Now
79 °F

Sunny.


Feels Like: 80 °F
Forecast: 64 / 84 °F
Wind: 9 mph from East

Location: Van Nuys Airport

Current Time: Sep 18, 2014 at 11:55:05 AM

Latest Report: Sep 18, 2014 at 10:51 AM


Visibility: 10 mi

Pressure: 29.85 "Hg

Humidity: 48%

Dew point: 58 °F

Location of Simi ValleyLocation

Historic Weather in Simi Valley — Graph

°F

Simi Valley temperature yesterday

Maximum temperature yesterday: 99 °F (at 2:51 PM)
Minimum temperature yesterday: 75 °F (at 11:51 PM)
Average temperature yesterday: 87 °F

Past Weeks' High & Low Weather Summary

 TemperatureHumidityPressure
High106 °F (Sep 14, 12:51 PM)90% (Sep 5, 4:51 AM)29.92 "Hg (Sep 5, 4:51 AM)
Low62 °F (Sep 10, 6:51 AM)11% (Sep 14, 12:51 PM)29.64 "Hg (Sep 16, 4:51 PM)
Average83 °F41%29.78 "Hg
* Reported Sep 3 10:51 AM — Sep 18 10:51 AM, Simi Valley, Weather by CustomWeather, © 2014

Note: Actual official high and low records may vary slightly from our data, if they occured in-between our weather recording intervals... More about our weather records

Advertising

Simi Valley weather history for previous 24 hours

 ConditionsComfort  
Time TempWeatherWind HumidityBarometerVisibility
10:51 AM
Sep 18
79 °FSunny.9 mph48%29.85 "Hg10 mi
9:51 AM76 °FSunny.8 mph54%29.86 "Hg10 mi
8:51 AM73 °FSunny.No wind57%29.85 "Hg10 mi
7:51 AM70 °FSunny.3 mph61%29.83 "Hg10 mi
6:51 AM69 °FClear.No wind63%29.81 "Hg10 mi
5:51 AM68 °FClear.No wind65%29.79 "Hg10 mi
4:51 AM70 °FClear.5 mph61%29.78 "Hg10 mi
3:51 AM71 °FClear.3 mph59%29.77 "Hg10 mi
2:51 AM72 °FClear.No wind55%29.77 "Hg10 mi
1:51 AM73 °FClear.No wind51%29.77 "Hg10 mi
12:51 AM74 °FClear.No wind50%29.77 "Hg10 mi
11:51 PM
Sep 17
75 °FClear.No wind48%29.76 "Hg10 mi
10:51 PM76 °FClear.No wind48%29.75 "Hg10 mi
9:51 PM79 °FClear.3 mph44%29.74 "Hg10 mi
8:51 PM80 °FClear.5 mph42%29.72 "Hg10 mi
7:51 PM83 °FSunny.3 mph36%29.71 "Hg10 mi
6:51 PM86 °FSunny.5 mph29%29.70 "Hg10 mi
5:51 PM92 °FSunny.9 mph20%29.68 "Hg10 mi
4:51 PM95 °FSunny.10 mph21%29.67 "Hg10 mi
3:51 PM97 °FSunny.7 mph19%29.68 "Hg10 mi
2:51 PM99 °FSunny.13 mph23%29.68 "Hg10 mi
1:51 PM98 °FPassing clouds.8 mph24%29.70 "Hg10 mi
12:51 PM96 °FPassing clouds.9 mph27%29.72 "Hg10 mi
11:51 AM97 °FPassing clouds.10 mph27%29.73 "Hg10 mi
Weather by CustomWeather, © 2014

See weather overviewHow to use our weather pages